FO-29
1 24278U 96046B 15049.55192366 -.00000001 00000-0 34248-4 0 9991
2 24278 098.5276 034.4673 0350624 018.6342 094.1596 13.53044690913982
SO-33
1 25509U 98061B 15049.84054468 .00001176 00000-0 22023-3 0 9990
2 25509 031.4311 202.5159 0348160 115.8749 002.9185 14.29846724852475
RS-22
1 27939U 03042A 15050.33544192 .00001257 00000-0 23838-3 0 9993
2 27939 097.8256 217.5768 0013857 044.8244 315.4081 14.65807754608929
HO-68
1 36122U 09072B 15050.28227234 -.00000060 00000-0 -43517-4 0 9995
2 36122 100.2121 099.2130 0007613 032.2972 327.8609 13.16324007248948
AO-73
1 39444U 13066AE 15049.64193754 .00002454 00000-0 32363-3 0 9993
2 39444 097.7444 116.7096 0061258 161.0160 199.3355 14.79664225 65886
EO-79
1 40025U 14033R 15050.44868858 .00002564 00000-0 29526-3 0 9998
2 40025 097.9648 310.5162 0012181 206.0527 154.0058 14.86568782 36309
UO-11
1 14781U 84021B 15049.69923125 .00000775 00000-0 10374-3 0 9999
2 14781 097.8170 109.6201 0010094 099.3575 260.8780 14.82170387664475
AO-16
1 20439U 90005D 15049.81864343 .00000185 00000-0 84376-4 0 9994
2 20439 098.5320 347.8152 0011676 146.1071 272.2551 14.32491338309798
LO-19
1 20442U 90005G 15050.10834314 .00000145 00000-0 69291-4 0 9992
2 20442 098.5032 348.0130 0012798 134.8383 225.3843 14.32687130310036
AO-27
1 22825U 93061C 15049.39529288 .00000187 00000-0 90105-4 0 9998
2 22825 098.6957 359.5670 0007364 299.1187 175.5474 14.29836442115965
IO-26
1 22826U 93061D 15049.38576366 .00000211 00000-0 98632-4 0 9998
2 22826 098.6898 359.7405 0007827 290.0125 070.0214 14.30148565116106
GO-32
1 25397U 98043D 15049.39884355 .00000092 00000-0 58953-4 0 9999
2 25397 098.5062 003.6596 0000678 020.4940 091.1218 14.23517972862893
NO-44
1 26931U 01043C 15049.62583920 .00000116 00000-0 76725-4 0 9992
2 26931 067.0515 122.9086 0006780 267.8717 092.1608 14.30260291698843
SO-50
1 27607U 02058C 15049.55969002 .00001021 00000-0 16750-3 0 9998
2 27607 064.5560 200.9399 0074640 312.1898 047.2882 14.74458324653798
CO-55
1 27844U 03031E 15049.49075374 .00000317 00000-0 16414-3 0 9990
2 27844 098.6977 059.7086 0008581 283.8972 229.9114 14.21716534603572
CO-57
1 27848U 03031J 15050.23735161 .00000225 00000-0 12289-3 0 9999
2 27848 098.7074 060.2897 0008490 289.5970 130.1718 14.21375685603595
AO-51
1 28375U 04025K 15049.41744800 .00000390 00000-0 12854-3 0 9998
2 28375 098.2819 353.3533 0081979 329.0264 030.6105 14.41587676559372
CP3
1 31129U 07012N 15049.90155029 .00001522 00000-0 33901-3 0 9995
2 31129 097.9673 020.9155 0096194 323.0630 088.9731 14.55497459415916
CO-65
1 32785U 08021C 15050.05728701 .00002003 00000-0 23244-3 0 9990
2 32785 097.6645 097.9089 0015050 097.1885 323.0097 14.86395830368687
PRISM
1 33493U 09002B 15050.45396833 .00004898 00000-0 48672-3 0 9994
2 33493 098.2527 242.1770 0017082 358.8327 001.2844 14.92102222329013
SOHLA-1
1 33496U 09002E 15049.91633521 .00000597 00000-0 10519-3 0 9995
2 33496 098.1945 176.9328 0006853 169.5597 303.0387 14.71201360325787
TISAT-1
1 36799U 10035E 15050.27225420 .00004020 00000-0 44767-3 0 9995
2 36799 098.0131 149.3887 0012488 230.0051 188.4334 14.87624881249423
STUDSAT
1 36801U 10035G 15050.26657578 .00024901 00000-0 16901-2 0 9999
2 36801 098.0526 163.7679 0006381 183.6954 206.6779 15.06379109250187
ALMASAT-1
1 38078U 12006B 15049.40782225 .00036517 32595-5 69675-3 0 9991
2 38078 069.4582 177.8395 0516630 060.7581 304.4192 14.68555085157531
XATCOBEO
1 38082U 12006F 14243.34478676 .13583328 43697-5 37939-3 0 9990
2 38082 069.3815 097.0364 0033293 225.1799 135.4582 16.41261006136239
CUBEBUG-1
1 39153U 13018D 15050.16542453 .00001531 00000-0 21522-3 0 9990
2 39153 098.0225 134.8826 0016219 274.1015 085.8342 14.78775591 98034
ESTCUBE-1
1 39161U 13021C 15050.32021280 .00001453 00000-0 24593-3 0 9995
2 39161 098.0778 134.2791 0009353 336.3737 023.7039 14.70816950 95919
DUCHIFAT-1
1 40021U 14033M 15050.39960150 .00003523 00000-0 39734-3 0 9994
2 40021 097.9637 310.6327 0013180 206.8653 153.1879 14.87177624 36296
NANOSATCBR1
1 40024U 14033Q 15050.29345159 .00003185 00000-0 36254-3 0 9990
2 40024 097.9620 310.4068 0012054 206.1108 153.9520 14.86871434 36276
DTUSAT-2
1 40030U 14033W 15050.30894409 .00002635 00000-0 30615-3 0 9990
2 40030 097.9615 310.2014 0012036 198.6104 161.4665 14.86177441 36278
ANTELSAT
1 40034U 14033AA 15050.41705627 .00001762 00000-0 27890-3 0 9990
2 40034 097.9589 304.9951 0061119 136.0175 224.5899 14.72258763 35969
MET-2/21
1 22782U 93055A 15049.93027312 .00000110 00000-0 86094-4 0 9992
2 22782 082.5527 337.5130 0021017 293.9925 134.5104 13.83762804 84242
OKEAN-4
1 23317U 94066A 15049.90066253 .00001470 00000-0 16365-3 0 9997
2 23317 082.5394 196.4954 0019891 005.5193 108.5890 14.86335713 99749
NOAA-14
1 23455U 94089A 15050.46673078 -.00000009 00000-0 17981-4 0 9991
2 23455 098.7580 134.3137 0010189 060.7737 067.5248 14.14023768 38895
NOAA-15
1 25338U 98030A 15050.87665554 .00000257 00000-0 10840-3 0 9998
2 25338 098.7687 049.4648 0011155 144.2567 215.9833 14.25567980872134
RESURS
1 25394U 98043A 15049.92405491 .00000046 00000-0 38003-4 0 9998
2 25394 098.4510 009.3690 0000473 205.3999 223.7443 14.24442244863441
FENGYUN1
1 25730U 99025A 15049.52998781 .00000992 00000-0 55506-3 0 9994
2 25730 098.9347 014.5229 0020104 125.6636 011.0979 14.13003202812293
OKEAN-0
1 25860U 99039A 15050.36791508 .00000800 00000-0 12418-3 0 9998
2 25860 098.0803 018.3416 0001241 083.2964 036.4062 14.75822442838609
NOAA-16
1 26536U 00055A 15050.83959374 .00000105 00000-0 56435-4 0 9994
2 26536 098.9571 116.8581 0010193 199.4814 160.6455 14.13076852743089
NOAA-17
1 27453U 02032A 15050.52751883 .00000081 00000-0 52235-4 0 9998
2 27453 098.3321 042.4082 0012295 163.3264 196.8323 14.24853962657906
NOAA-18
1 28654U 05018A 15050.54054435 .00000190 00000-0 12904-3 0 9999
2 28654 099.1770 040.3666 0013321 291.3949 174.7625 14.12151258502472
NOAA-19
1 33591U 09005A 15050.55339067 .00000292 00000-0 18413-3 0 9997
2 33591 098.9774 000.2395 0014816 139.0754 339.2912 14.11875641310893
HUBBLE
1 20580U 90037B 15049.91929047 .00002473 00000-0 15023-3 0 9994
2 20580 028.4690 213.6934 0003336 049.8834 084.4844 15.06845648161956
ISS
1 25544U 98067A 15050.77564126 .00022657 00000-0 33714-3 0 9992
2 25544 051.6484 310.4179 0005775 026.7201 077.4815 15.55028906929763
CO-58
1 28895U 05043F 15049.77601986 .00000981 00000-0 20197-3 0 9997
2 28895 097.8224 243.7392 0016069 313.8375 046.1498 14.62512604496280
FALCON
1 30776U 07006E 15049.35292032 .00014212 00000-0 61608-3 0 9995
2 30776 035.4296 024.5966 0003809 278.6890 206.7924 15.21594113438171
MAST
1 31126U 07012K 15049.93027453 .00000938 00000-0 21289-3 0 9990
2 31126 097.9473 023.4473 0089937 305.1295 115.6422 14.55835838416280
CAPE1
1 31130U 07012P 15049.85956842 .00001414 00000-0 31751-3 0 9994
2 31130 097.9690 020.3807 0096739 324.8684 034.6159 14.55194802415679
COMPASS
1 32787U 08021E 15049.43503422 .00003026 00000-0 31998-3 0 9994
2 32787 097.6675 100.7232 0014784 088.6311 271.6600 14.89850116368827
AAUSAT2
1 32788U 08021F 15050.11238988 .00003444 00000-0 35509-3 0 9990
2 32788 097.6679 102.7015 0014087 084.2297 276.0527 14.90793418369005
DO-64
1 32789U 08021G 15049.42595089 .00009692 00000-0 82933-3 0 9995
2 32789 097.6878 111.2635 0011725 066.4164 358.4761 14.97748031369295
CO-66
1 32791U 08021J 15049.84283150 .00002400 00000-0 26607-3 0 9993
2 32791 097.6664 099.3046 0015496 092.4659 267.8332 14.88098307368717
